TimeCST,TemperatureF,Dew PointF,Humidity,Sea Level PressureIn,VisibilityMPH,Wind Direction,Wind SpeedMPH,Gust SpeedMPH,PrecipitationIn,Events,Conditions,WindDirDegrees,DateUTC
12:53 AM,44.1,36.0,73,29.61,10.0,South,10.4,-,N/A,,Clear,190,2012-12-03 06:53:00
1:53 AM,37.9,34.0,86,29.59,10.0,SSW,6.9,-,N/A,,Clear,210,2012-12-03 07:53:00
2:53 AM,37.0,34.0,89,29.59,10.0,SE,5.8,-,N/A,,Clear,140,2012-12-03 08:53:00
3:53 AM,33.1,30.9,92,29.60,8.0,Calm,Calm,-,N/A,,Clear,0,2012-12-03 09:53:00
4:53 AM,30.0,28.9,96,29.63,6.0,North,3.5,-,N/A,,Clear,350,2012-12-03 10:53:00
5:53 AM,32.0,30.9,96,29.62,5.0,SW,4.6,-,N/A,,Clear,220,2012-12-03 11:53:00
6:53 AM,28.0,27.0,96,29.66,7.0,Calm,Calm,-,N/A,,Clear,0,2012-12-03 12:53:00
7:53 AM,32.0,30.0,92,29.70,6.0,NNW,5.8,-,N/A,,Clear,340,2012-12-03 13:53:00
8:53 AM,51.8,37.4,58,29.72,10.0,NNW,21.9,29.9,N/A,,Clear,340,2012-12-03 14:53:00
9:53 AM,53.1,37.0,55,29.81,10.0,NNW,21.9,27.6,N/A,,Clear,330,2012-12-03 15:53:00
10:53 AM,55.9,36.0,47,29.85,10.0,North,31.1,39.1,N/A,,Clear,350,2012-12-03 16:53:00
11:53 AM,54.0,34.0,47,29.88,10.0,NNW,19.6,29.9,N/A,,Clear,330,2012-12-03 17:53:00
12:53 PM,57.2,30.2,36,29.88,10.0,NNW,19.6,26.5,N/A,,Clear,340,2012-12-03 18:53:00
1:53 PM,59.0,25.0,27,29.91,10.0,NNW,19.6,29.9,N/A,,Clear,340,2012-12-03 19:53:00
2:53 PM,57.9,19.9,23,29.94,10.0,NNW,18.4,27.6,N/A,,Clear,340,2012-12-03 20:53:00
3:53 PM,55.9,17.1,22,29.97,10.0,NNW,18.4,31.1,N/A,,Clear,330,2012-12-03 21:53:00
4:53 PM,51.1,18.0,27,30.02,10.0,NNW,10.4,-,N/A,,Clear,330,2012-12-03 22:53:00
5:53 PM,39.9,17.1,40,30.07,10.0,West,3.5,-,N/A,,Clear,280,2012-12-03 23:53:00
6:53 PM,32.0,17.1,54,30.12,10.0,SSW,6.9,-,N/A,,Clear,200,2012-12-04 00:53:00
7:53 PM,30.9,17.1,57,30.13,10.0,SW,4.6,-,N/A,,Clear,230,2012-12-04 01:53:00
8:53 PM,32.0,19.0,59,30.12,10.0,Calm,Calm,-,N/A,,Clear,0,2012-12-04 02:53:00
9:53 PM,23.0,15.1,72,30.15,10.0,Calm,Calm,-,N/A,,Clear,0,2012-12-04 03:53:00
10:53 PM,23.0,14.0,68,30.16,10.0,Calm,Calm,-,N/A,,Clear,0,2012-12-04 04:53:00
11:53 PM,24.1,15.1,69,30.17,10.0,WNW,3.5,-,N/A,,Clear,290,2012-12-04 05:53:00